Time,TemperatureF,DewpointF,PressureIn,WindDirection,WindDirectionDegrees,WindSpeedMPH,WindSpeedGustMPH,Humidity,HourlyPrecipIn,Conditions,Clouds,dailyrainin,SoftwareType,DateUTC
2013-02-21 00:00:00,26.6,15.4,29.72,West,271,0.0,0.0,62,0.00,,,0.00,WeatherTracker,2013-02-21 05:00:00,
2013-02-21 00:05:00,26.5,15.3,29.72,WSW,246,3.0,0.0,62,0.00,,,0.00,WeatherTracker,2013-02-21 05:05:00,
2013-02-21 00:10:00,26.5,15.3,29.72,WSW,248,4.0,0.0,62,0.00,,,0.00,WeatherTracker,2013-02-21 05:10:00,
2013-02-21 00:15:00,26.5,15.3,29.72,West,268,0.0,0.0,62,0.00,,,0.00,WeatherTracker,2013-02-21 05:15:00,
2013-02-21 00:20:00,26.4,15.2,29.72,West,263,0.0,0.0,62,0.00,,,0.00,WeatherTracker,2013-02-21 05:20:00,
2013-02-21 00:25:00,26.3,15.1,29.72,WNW,283,0.0,0.0,62,0.00,,,0.00,WeatherTracker,2013-02-21 05:25:00,
2013-02-21 00:30:00,26.3,15.4,29.72,West,281,3.0,0.0,63,0.00,,,0.00,WeatherTracker,2013-02-21 05:30:00,
2013-02-21 00:35:00,26.3,15.4,29.72,WSW,255,0.0,0.0,63,0.00,,,0.00,WeatherTracker,2013-02-21 05:35:00,
2013-02-21 00:40:00,26.1,15.3,29.72,WSW,248,0.0,0.0,63,0.00,,,0.00,WeatherTracker,2013-02-21 05:40:00,
2013-02-21 00:45:00,26.1,15.6,29.73,South,185,2.0,0.0,64,0.00,,,0.00,WeatherTracker,2013-02-21 05:45:00,
2013-02-21 00:50:00,26.0,15.5,29.73,WNW,287,0.0,0.0,64,0.00,,,0.00,WeatherTracker,2013-02-21 05:50:00,
2013-02-21 00:55:00,26.1,15.3,29.73,WNW,298,0.0,0.0,63,0.00,,,0.00,WeatherTracker,2013-02-21 05:55:00,
2013-02-21 01:01:00,26.0,15.5,29.73,WSW,255,0.0,0.0,64,0.00,,,0.00,WeatherTracker,2013-02-21 06:01:00,
2013-02-21 01:06:00,25.9,15.4,29.73,WSW,243,0.0,0.0,64,0.00,,,0.00,WeatherTracker,2013-02-21 06:06:00,
2013-02-21 01:11:00,25.8,15.3,29.74,SSE,159,2.0,0.0,64,0.00,,,0.00,WeatherTracker,2013-02-21 06:11:00,
2013-02-21 01:16:00,25.8,15.3,29.74,SSW,199,0.0,0.0,64,0.00,,,0.00,WeatherTracker,2013-02-21 06:16:00,
2013-02-21 01:21:00,25.7,15.6,29.74,SSW,206,0.0,0.0,65,0.00,,,0.00,WeatherTracker,2013-02-21 06:21:00,
2013-02-21 01:26:00,25.7,15.6,29.74,SW,236,2.0,0.0,65,0.00,,,0.00,WeatherTracker,2013-02-21 06:26:00,
2013-02-21 01:31:00,25.7,15.6,29.74,WSW,241,0.0,0.0,65,0.00,,,0.00,WeatherTracker,2013-02-21 06:31:00,
2013-02-21 01:36:00,25.7,15.6,29.74,South,180,0.0,0.0,65,0.00,,,0.00,WeatherTracker,2013-02-21 06:36:00,
2013-02-21 01:41:00,25.8,15.7,29.74,SW,226,0.0,0.0,65,0.00,,,0.00,WeatherTracker,2013-02-21 06:41:00,
2013-02-21 01:46:00,25.8,15.3,29.74,WNW,296,0.0,0.0,64,0.00,,,0.00,WeatherTracker,2013-02-21 06:46:00,
2013-02-21 01:51:00,25.8,15.7,29.73,WSW,244,0.0,0.0,65,0.00,,,0.00,WeatherTracker,2013-02-21 06:51:00,
2013-02-21 01:56:00,25.9,15.4,29.73,SW,236,3.0,0.0,64,0.00,,,0.00,WeatherTracker,2013-02-21 06:56:00,
2013-02-21 02:01:00,26.0,15.5,29.73,West,275,0.0,0.0,64,0.00,,,0.00,WeatherTracker,2013-02-21 07:01:00,
2013-02-21 02:06:00,26.2,15.7,29.73,West,267,0.0,0.0,64,0.00,,,0.00,WeatherTracker,2013-02-21 07:06:00,
2013-02-21 02:11:00,26.2,15.7,29.73,WSW,244,1.0,0.0,64,0.00,,,0.00,WeatherTracker,2013-02-21 07:11:00,
2013-02-21 02:16:00,26.3,15.4,29.73,WNW,285,0.0,0.0,63,0.00,,,0.00,WeatherTracker,2013-02-21 07:16:00,
2013-02-21 02:21:00,26.4,15.5,29.73,SE,138,0.0,0.0,63,0.00,,,0.00,WeatherTracker,2013-02-21 07:21:00,
2013-02-21 02:26:00,26.4,15.5,29.73,West,275,3.0,0.0,63,0.00,,,0.00,WeatherTracker,2013-02-21 07:26:00,
2013-02-21 02:31:00,26.5,15.3,29.73,WSW,254,3.0,0.0,62,0.00,,,0.00,WeatherTracker,2013-02-21 07:31:00,
2013-02-21 02:36:00,26.6,15.7,29.73,WSW,257,0.0,0.0,63,0.00,,,0.00,WeatherTracker,2013-02-21 07:36:00,
2013-02-21 02:41:00,26.5,15.6,29.73,SW,232,2.0,0.0,63,0.00,,,0.00,WeatherTracker,2013-02-21 07:41:00,
2013-02-21 02:46:00,26.6,15.4,29.73,SW,225,2.0,0.0,62,0.00,,,0.00,WeatherTracker,2013-02-21 07:46:00,
2013-02-21 02:51:00,26.6,15.7,29.73,SW,226,0.0,0.0,63,0.00,,,0.00,WeatherTracker,2013-02-21 07:51:00,
2013-02-21 02:57:00,26.5,15.6,29.73,West,268,0.0,0.0,63,0.00,,,0.00,WeatherTracker,2013-02-21 07:57:00,
2013-02-21 03:02:00,26.5,15.6,29.72,SSW,199,3.0,0.0,63,0.00,,,0.00,WeatherTracker,2013-02-21 08:02:00,
2013-02-21 03:07:00,26.5,15.6,29.73,SSW,193,3.0,0.0,63,0.00,,,0.00,WeatherTracker,2013-02-21 08:07:00,
2013-02-21 03:12:00,26.5,15.6,29.73,West,261,0.0,0.0,63,0.00,,,0.00,WeatherTracker,2013-02-21 08:12:00,
2013-02-21 03:17:00,26.5,15.6,29.73,West,279,0.0,0.0,63,0.00,,,0.00,WeatherTracker,2013-02-21 08:17:00,
2013-02-21 03:22:00,26.5,15.6,29.73,NW,315,1.0,0.0,63,0.00,,,0.00,WeatherTracker,2013-02-21 08:22:00,
2013-02-21 03:27:00,26.5,15.6,29.73,WSW,254,0.0,0.0,63,0.00,,,0.00,WeatherTracker,2013-02-21 08:27:00,
2013-02-21 03:32:00,26.4,15.5,29.73,WSW,245,1.0,0.0,63,0.00,,,0.00,WeatherTracker,2013-02-21 08:32:00,
2013-02-21 03:37:00,26.3,15.4,29.73,NNW,329,0.0,0.0,63,0.00,,,0.00,WeatherTracker,2013-02-21 08:37:00,
2013-02-21 03:42:00,26.3,15.4,29.73,WSW,237,1.0,0.0,63,0.00,,,0.00,WeatherTracker,2013-02-21 08:42:00,
2013-02-21 03:47:00,26.2,15.3,29.73,West,268,3.0,0.0,63,0.00,,,0.00,WeatherTracker,2013-02-21 08:47:00,
2013-02-21 03:52:00,26.2,15.0,29.73,SW,234,1.0,0.0,62,0.00,,,0.00,WeatherTracker,2013-02-21 08:52:00,
2013-02-21 03:57:00,26.1,14.9,29.73,SSW,207,7.0,0.0,62,0.00,,,0.00,WeatherTracker,2013-02-21 08:57:00,
2013-02-21 04:02:00,26.1,14.9,29.73,SW,225,4.0,0.0,62,0.00,,,0.00,WeatherTracker,2013-02-21 09:02:00,
2013-02-21 04:07:00,26.2,14.6,29.73,West,265,0.0,0.0,61,0.00,,,0.00,WeatherTracker,2013-02-21 09:07:00,
2013-02-21 04:12:00,26.1,14.9,29.73,WSW,254,1.0,0.0,62,0.00,,,0.00,WeatherTracker,2013-02-21 09:12:00,
2013-02-21 04:17:00,26.0,14.8,29.73,WSW,239,3.0,0.0,62,0.00,,,0.00,WeatherTracker,2013-02-21 09:17:00,
2013-02-21 04:22:00,25.9,14.7,29.74,South,175,1.0,0.0,62,0.00,,,0.00,WeatherTracker,2013-02-21 09:22:00,
2013-02-21 04:27:00,25.9,14.3,29.74,WSW,257,1.0,0.0,61,0.00,,,0.00,WeatherTracker,2013-02-21 09:27:00,
2013-02-21 04:32:00,25.8,14.2,29.74,WNW,289,0.0,0.0,61,0.00,,,0.00,WeatherTracker,2013-02-21 09:32:00,
2013-02-21 04:37:00,25.9,14.0,29.74,West,274,0.0,0.0,60,0.00,,,0.00,WeatherTracker,2013-02-21 09:37:00,
2013-02-21 04:42:00,25.8,14.2,29.74,WSW,245,1.0,0.0,61,0.00,,,0.00,WeatherTracker,2013-02-21 09:42:00,
2013-02-21 04:47:00,25.8,14.2,29.73,WSW,247,0.0,0.0,61,0.00,,,0.00,WeatherTracker,2013-02-21 09:47:00,
2013-02-21 04:53:00,25.7,14.5,29.74,West,267,0.0,0.0,62,0.00,,,0.00,WeatherTracker,2013-02-21 09:53:00,
2013-02-21 04:58:00,25.6,14.8,29.74,West,268,1.0,0.0,63,0.00,,,0.00,WeatherTracker,2013-02-21 09:58:00,
2013-02-21 05:03:00,25.5,14.7,29.74,West,271,2.0,0.0,63,0.00,,,0.00,WeatherTracker,2013-02-21 10:03:00,
2013-02-21 05:08:00,25.4,14.6,29.74,WSW,239,3.0,0.0,63,0.00,,,0.00,WeatherTracker,2013-02-21 10:08:00,
2013-02-21 05:13:00,25.6,15.1,29.74,SW,214,0.0,0.0,64,0.00,,,0.00,WeatherTracker,2013-02-21 10:13:00,
2013-02-21 05:18:00,25.6,14.4,29.75,South,176,1.0,0.0,62,0.00,,,0.00,WeatherTracker,2013-02-21 10:18:00,
2013-02-21 05:23:00,25.6,14.4,29.75,West,277,1.0,0.0,62,0.00,,,0.00,WeatherTracker,2013-02-21 10:23:00,
2013-02-21 05:28:00,25.6,14.4,29.74,West,275,4.0,0.0,62,0.00,,,0.00,WeatherTracker,2013-02-21 10:28:00,
2013-02-21 05:33:00,25.6,14.4,29.74,SW,231,2.0,0.0,62,0.00,,,0.00,WeatherTracker,2013-02-21 10:33:00,
2013-02-21 05:38:00,25.6,14.4,29.74,SSW,200,6.0,0.0,62,0.00,,,0.00,WeatherTracker,2013-02-21 10:38:00,
2013-02-21 05:43:00,25.6,14.4,29.74,SSE,157,0.0,0.0,62,0.00,,,0.00,WeatherTracker,2013-02-21 10:43:00,
2013-02-21 05:48:00,25.6,13.7,29.74,ESE,117,1.0,0.0,60,0.00,,,0.00,WeatherTracker,2013-02-21 10:48:00,
2013-02-21 05:53:00,25.5,13.6,29.74,SSW,205,1.0,0.0,60,0.00,,,0.00,WeatherTracker,2013-02-21 10:53:00,
2013-02-21 05:58:00,25.5,13.6,29.74,WSW,244,8.0,0.0,60,0.00,,,0.00,WeatherTracker,2013-02-21 10:58:00,
2013-02-21 06:03:00,25.5,13.6,29.74,West,277,0.0,0.0,60,0.00,,,0.00,WeatherTracker,2013-02-21 11:03:00,
2013-02-21 06:08:00,25.4,13.5,29.74,SE,127,4.0,0.0,60,0.00,,,0.00,WeatherTracker,2013-02-21 11:08:00,
2013-02-21 06:13:00,25.3,13.4,29.75,NW,313,3.0,0.0,60,0.00,,,0.00,WeatherTracker,2013-02-21 11:13:00,
2013-02-21 06:18:00,25.2,13.3,29.75,WSW,253,1.0,0.0,60,0.00,,,0.00,WeatherTracker,2013-02-21 11:18:00,
2013-02-21 06:23:00,25.2,13.3,29.75,West,271,0.0,0.0,60,0.00,,,0.00,WeatherTracker,2013-02-21 11:23:00,
2013-02-21 06:28:00,25.1,13.6,29.75,WSW,237,2.0,0.0,61,0.00,,,0.00,WeatherTracker,2013-02-21 11:28:00,
2013-02-21 06:33:00,24.9,13.4,29.75,WSW,254,0.0,0.0,61,0.00,,,0.00,WeatherTracker,2013-02-21 11:33:00,
2013-02-21 06:38:00,24.9,13.4,29.75,West,272,2.0,0.0,61,0.00,,,0.00,WeatherTracker,2013-02-21 11:38:00,
2013-02-21 06:43:00,24.8,13.3,29.75,West,260,6.0,0.0,61,0.00,,,0.00,WeatherTracker,2013-02-21 11:43:00,
2013-02-21 06:49:00,24.7,13.2,29.75,North,350,4.0,0.0,61,0.00,,,0.00,WeatherTracker,2013-02-21 11:49:00,
2013-02-21 06:54:00,24.6,13.1,29.75,WSW,250,0.0,0.0,61,0.00,,,0.00,WeatherTracker,2013-02-21 11:54:00,
2013-02-21 06:59:00,24.5,13.0,29.76,West,271,0.0,0.0,61,0.00,,,0.00,WeatherTracker,2013-02-21 11:59:00,
2013-02-21 07:04:00,24.5,13.0,29.76,West,277,0.0,0.0,61,0.00,,,0.00,WeatherTracker,2013-02-21 12:04:00,
2013-02-21 07:09:00,24.5,13.0,29.76,West,269,5.0,0.0,61,0.00,,,0.00,WeatherTracker,2013-02-21 12:09:00,
2013-02-21 07:14:00,24.5,12.2,29.76,WNW,290,0.0,0.0,59,0.00,,,0.00,WeatherTracker,2013-02-21 12:14:00,
2013-02-21 07:19:00,24.5,12.6,29.76,WSW,241,3.0,0.0,60,0.00,,,0.00,WeatherTracker,2013-02-21 12:19:00,
2013-02-21 07:24:00,24.5,12.6,29.76,WNW,293,0.0,0.0,60,0.00,,,0.00,WeatherTracker,2013-02-21 12:24:00,
2013-02-21 07:29:00,24.4,12.2,29.76,NW,311,0.0,0.0,59,0.00,,,0.00,WeatherTracker,2013-02-21 12:29:00,
2013-02-21 07:34:00,24.4,12.2,29.76,NW,313,5.0,0.0,59,0.00,,,0.00,WeatherTracker,2013-02-21 12:34:00,
2013-02-21 07:39:00,24.4,11.8,29.76,WSW,248,6.0,0.0,58,0.00,,,0.00,WeatherTracker,2013-02-21 12:39:00,
2013-02-21 07:44:00,24.5,11.5,29.76,WNW,302,4.0,0.0,57,0.00,,,0.00,WeatherTracker,2013-02-21 12:44:00,
2013-02-21 07:49:00,24.6,12.0,29.76,SSW,212,3.0,0.0,58,0.00,,,0.00,WeatherTracker,2013-02-21 12:49:00,
2013-02-21 07:54:00,24.7,12.1,29.77,SW,236,2.0,0.0,58,0.00,,,0.00,WeatherTracker,2013-02-21 12:54:00,
2013-02-21 07:59:00,24.8,11.8,29.76,NW,304,2.0,0.0,57,0.00,,,0.00,WeatherTracker,2013-02-21 12:59:00,
2013-02-21 08:04:00,24.9,11.8,29.76,West,267,6.0,0.0,57,0.00,,,0.00,WeatherTracker,2013-02-21 13:04:00,
2013-02-21 08:09:00,25.1,12.0,29.76,West,281,3.0,0.0,57,0.00,,,0.00,WeatherTracker,2013-02-21 13:09:00,
2013-02-21 08:14:00,25.1,11.6,29.76,West,275,1.0,0.0,56,0.00,,,0.00,WeatherTracker,2013-02-21 13:14:00,
2013-02-21 08:19:00,25.1,11.6,29.76,SW,226,4.0,0.0,56,0.00,,,0.00,WeatherTracker,2013-02-21 13:19:00,
2013-02-21 08:24:00,25.2,12.1,29.76,South,190,1.0,0.0,57,0.00,,,0.00,WeatherTracker,2013-02-21 13:24:00,
2013-02-21 08:29:00,25.3,11.8,29.76,NW,305,1.0,0.0,56,0.00,,,0.00,WeatherTracker,2013-02-21 13:29:00,
2013-02-21 08:35:00,25.4,11.9,29.76,NW,313,5.0,0.0,56,0.00,,,0.00,WeatherTracker,2013-02-21 13:35:00,
2013-02-21 08:40:00,25.2,11.3,29.76,West,271,2.0,0.0,55,0.00,,,0.00,WeatherTracker,2013-02-21 13:40:00,
2013-02-21 08:45:00,25.3,11.8,29.75,WNW,284,9.0,0.0,56,0.00,,,0.00,WeatherTracker,2013-02-21 13:45:00,
2013-02-21 08:50:00,25.4,11.5,29.75,WSW,254,1.0,0.0,55,0.00,,,0.00,WeatherTracker,2013-02-21 13:50:00,
2013-02-21 08:55:00,25.5,11.6,29.74,West,278,0.0,0.0,55,0.00,,,0.00,WeatherTracker,2013-02-21 13:55:00,
2013-02-21 09:00:00,25.6,11.3,29.75,NNW,336,4.0,0.0,54,0.00,,,0.00,WeatherTracker,2013-02-21 14:00:00,
2013-02-21 09:05:00,25.7,11.8,29.74,West,267,3.0,0.0,55,0.00,,,0.00,WeatherTracker,2013-02-21 14:05:00,
2013-02-21 09:10:00,26.1,12.2,29.74,West,266,0.0,0.0,55,0.00,,,0.00,WeatherTracker,2013-02-21 14:10:00,
2013-02-21 09:15:00,26.7,11.9,29.74,West,279,0.0,0.0,53,0.00,,,0.00,WeatherTracker,2013-02-21 14:15:00,
2013-02-21 09:20:00,27.1,12.3,29.74,West,270,2.0,0.0,53,0.00,,,0.00,WeatherTracker,2013-02-21 14:20:00,
2013-02-21 09:25:00,27.0,11.3,29.74,WSW,252,1.0,0.0,51,0.00,,,0.00,WeatherTracker,2013-02-21 14:25:00,
2013-02-21 09:30:00,27.2,12.4,29.74,South,179,0.0,0.0,53,0.00,,,0.00,WeatherTracker,2013-02-21 14:30:00,
2013-02-21 09:35:00,27.5,11.8,29.74,West,279,1.0,0.0,51,0.00,,,0.00,WeatherTracker,2013-02-21 14:35:00,
2013-02-21 09:40:00,27.4,11.2,29.74,NW,306,4.0,0.0,50,0.00,,,0.00,WeatherTracker,2013-02-21 14:40:00,
2013-02-21 09:45:00,27.4,11.7,29.75,West,277,8.0,0.0,51,0.00,,,0.00,WeatherTracker,2013-02-21 14:45:00,
2013-02-21 09:50:00,27.5,11.3,29.74,SW,231,4.0,0.0,50,0.00,,,0.00,WeatherTracker,2013-02-21 14:50:00,
2013-02-21 09:55:00,27.9,12.1,29.74,West,273,4.0,0.0,51,0.00,,,0.00,WeatherTracker,2013-02-21 14:55:00,
2013-02-21 10:00:00,28.1,12.3,29.74,NW,315,0.0,0.0,51,0.00,,,0.00,WeatherTracker,2013-02-21 15:00:00,
2013-02-21 10:05:00,28.0,10.9,29.74,North,355,0.0,0.0,48,0.00,,,0.00,WeatherTracker,2013-02-21 15:05:00,
2013-02-21 10:10:00,28.2,12.0,29.75,WNW,291,2.0,0.0,50,0.00,,,0.00,WeatherTracker,2013-02-21 15:10:00,
2013-02-21 10:15:00,28.3,11.6,29.75,West,271,7.0,0.0,49,0.00,,,0.00,WeatherTracker,2013-02-21 15:15:00,
2013-02-21 10:20:00,28.5,11.8,29.75,West,271,2.0,0.0,49,0.00,,,0.00,WeatherTracker,2013-02-21 15:20:00,
2013-02-21 10:26:00,28.7,12.0,29.75,WNW,282,6.0,0.0,49,0.00,,,0.00,WeatherTracker,2013-02-21 15:26:00,
2013-02-21 10:31:00,28.6,11.9,29.75,NW,307,5.0,0.0,49,0.00,,,0.00,WeatherTracker,2013-02-21 15:31:00,
2013-02-21 10:36:00,28.6,11.4,29.75,SW,225,3.0,0.0,48,0.00,,,0.00,WeatherTracker,2013-02-21 15:36:00,
2013-02-21 10:41:00,28.8,12.1,29.75,SW,216,7.0,0.0,49,0.00,,,0.00,WeatherTracker,2013-02-21 15:41:00,
2013-02-21 10:46:00,29.2,12.4,29.75,SW,227,1.0,0.0,49,0.00,,,0.00,WeatherTracker,2013-02-21 15:46:00,
2013-02-21 10:51:00,29.8,13.0,29.75,WSW,255,0.0,0.0,49,0.00,,,0.00,WeatherTracker,2013-02-21 15:51:00,
2013-02-21 10:56:00,30.0,13.2,29.75,WNW,289,3.0,0.0,49,0.00,,,0.00,WeatherTracker,2013-02-21 15:56:00,
2013-02-21 11:01:00,29.5,11.8,29.75,WNW,290,6.0,0.0,47,0.00,,,0.00,WeatherTracker,2013-02-21 16:01:00,
2013-02-21 11:06:00,29.2,12.0,29.75,West,261,6.0,0.0,48,0.00,,,0.00,WeatherTracker,2013-02-21 16:06:00,
2013-02-21 11:11:00,29.7,12.9,29.75,NNW,330,3.0,0.0,49,0.00,,,0.00,WeatherTracker,2013-02-21 16:11:00,
2013-02-21 11:16:00,29.4,11.7,29.75,WNW,284,2.0,0.0,47,0.00,,,0.00,WeatherTracker,2013-02-21 16:16:00,
2013-02-21 11:21:00,29.4,12.2,29.75,West,267,1.0,0.0,48,0.00,,,0.00,WeatherTracker,2013-02-21 16:21:00,
2013-02-21 11:26:00,29.8,13.5,29.75,West,269,4.0,0.0,50,0.00,,,0.00,WeatherTracker,2013-02-21 16:26:00,
2013-02-21 11:31:00,30.0,12.2,29.74,WSW,249,4.0,0.0,47,0.00,,,0.00,WeatherTracker,2013-02-21 16:31:00,
2013-02-21 11:36:00,30.3,12.5,29.74,WSW,246,5.0,0.0,47,0.00,,,0.00,WeatherTracker,2013-02-21 16:36:00,
2013-02-21 11:41:00,30.3,12.5,29.74,WSW,255,3.0,0.0,47,0.00,,,0.00,WeatherTracker,2013-02-21 16:41:00,
2013-02-21 11:46:00,30.3,13.0,29.74,WNW,297,1.0,0.0,48,0.00,,,0.00,WeatherTracker,2013-02-21 16:46:00,
2013-02-21 11:51:00,30.5,12.2,29.74,WSW,252,11.0,0.0,46,0.00,,,0.00,WeatherTracker,2013-02-21 16:51:00,
2013-02-21 11:56:00,30.5,12.2,29.74,NE,46,4.0,0.0,46,0.00,,,0.00,WeatherTracker,2013-02-21 16:56:00,
2013-02-21 12:01:00,30.6,11.8,29.74,West,273,2.0,0.0,45,0.00,,,0.00,WeatherTracker,2013-02-21 17:01:00,
2013-02-21 12:07:00,31.0,12.7,29.74,NW,316,6.0,0.0,46,0.00,,,0.00,WeatherTracker,2013-02-21 17:07:00,
2013-02-21 12:12:00,30.8,12.5,29.74,North,349,0.0,0.0,46,0.00,,,0.00,WeatherTracker,2013-02-21 17:12:00,
2013-02-21 12:17:00,31.0,13.6,29.75,West,277,5.0,0.0,48,0.00,,,0.00,WeatherTracker,2013-02-21 17:17:00,
2013-02-21 12:22:00,31.2,12.9,29.74,WSW,246,2.0,0.0,46,0.00,,,0.00,WeatherTracker,2013-02-21 17:22:00,
2013-02-21 12:27:00,31.0,12.2,29.74,West,267,3.0,0.0,45,0.00,,,0.00,WeatherTracker,2013-02-21 17:27:00,
2013-02-21 12:32:00,31.4,13.0,29.74,WNW,290,0.0,0.0,46,0.00,,,0.00,WeatherTracker,2013-02-21 17:32:00,
2013-02-21 12:37:00,31.1,12.3,29.74,WSW,258,5.0,0.0,45,0.00,,,0.00,WeatherTracker,2013-02-21 17:37:00,
2013-02-21 12:42:00,30.8,12.5,29.74,WNW,286,3.0,0.0,46,0.00,,,0.00,WeatherTracker,2013-02-21 17:42:00,
2013-02-21 12:47:00,31.0,13.2,29.74,WNW,288,2.0,0.0,47,0.00,,,0.00,WeatherTracker,2013-02-21 17:47:00,
2013-02-21 12:52:00,31.5,13.6,29.74,West,269,4.0,0.0,47,0.00,,,0.00,WeatherTracker,2013-02-21 17:52:00,
2013-02-21 12:57:00,31.2,12.9,29.74,West,271,4.0,0.0,46,0.00,,,0.00,WeatherTracker,2013-02-21 17:57:00,
2013-02-21 13:02:00,30.8,13.0,29.74,West,277,6.0,0.0,47,0.00,,,0.00,WeatherTracker,2013-02-21 18:02:00,
2013-02-21 13:07:00,31.0,13.6,29.74,West,276,2.0,0.0,48,0.00,,,0.00,WeatherTracker,2013-02-21 18:07:00,
2013-02-21 13:12:00,31.4,13.0,29.74,West,278,5.0,0.0,46,0.00,,,0.00,WeatherTracker,2013-02-21 18:12:00,
2013-02-21 13:17:00,31.6,14.2,29.74,WNW,302,3.0,0.0,48,0.00,,,0.00,WeatherTracker,2013-02-21 18:17:00,
2013-02-21 13:22:00,32.4,14.9,29.74,WNW,286,1.0,0.0,48,0.00,,,0.00,WeatherTracker,2013-02-21 18:22:00,
2013-02-21 13:27:00,32.6,13.6,29.74,West,269,3.0,0.0,45,0.00,,,0.00,WeatherTracker,2013-02-21 18:27:00,
2013-02-21 13:32:00,32.6,14.1,29.74,WNW,302,3.0,0.0,46,0.00,,,0.00,WeatherTracker,2013-02-21 18:32:00,
2013-02-21 13:37:00,32.7,13.2,29.74,NNW,331,1.0,0.0,44,0.00,,,0.00,WeatherTracker,2013-02-21 18:37:00,
2013-02-21 13:42:00,32.8,14.3,29.74,NNW,327,1.0,0.0,46,0.00,,,0.00,WeatherTracker,2013-02-21 18:42:00,
2013-02-21 13:47:00,32.9,13.9,29.73,West,279,7.0,0.0,45,0.00,,,0.00,WeatherTracker,2013-02-21 18:47:00,
2013-02-21 13:52:00,32.3,13.4,29.74,SW,218,5.0,0.0,45,0.00,,,0.00,WeatherTracker,2013-02-21 18:52:00,
2013-02-21 13:58:00,32.6,14.1,29.74,SW,215,5.0,0.0,46,0.00,,,0.00,WeatherTracker,2013-02-21 18:58:00,
2013-02-21 14:03:00,32.1,13.2,29.75,SSW,200,3.0,0.0,45,0.00,,,0.00,WeatherTracker,2013-02-21 19:03:00,
2013-02-21 14:08:00,32.5,14.0,29.74,West,261,4.0,0.0,46,0.00,,,0.00,WeatherTracker,2013-02-21 19:08:00,
2013-02-21 14:13:00,32.8,13.8,29.74,West,279,2.0,0.0,45,0.00,,,0.00,WeatherTracker,2013-02-21 19:13:00,
2013-02-21 14:18:00,33.1,14.6,29.75,NNW,346,2.0,0.0,46,0.00,,,0.00,WeatherTracker,2013-02-21 19:18:00,
2013-02-21 14:23:00,33.0,13.5,29.75,NW,310,1.0,0.0,44,0.00,,,0.00,WeatherTracker,2013-02-21 19:23:00,
2013-02-21 14:28:00,32.7,13.2,29.75,West,273,2.0,0.0,44,0.00,,,0.00,WeatherTracker,2013-02-21 19:28:00,
2013-02-21 14:33:00,32.5,13.0,29.75,NW,312,3.0,0.0,44,0.00,,,0.00,WeatherTracker,2013-02-21 19:33:00,
2013-02-21 14:38:00,32.4,14.0,29.76,NNW,328,5.0,0.0,46,0.00,,,0.00,WeatherTracker,2013-02-21 19:38:00,
2013-02-21 14:43:00,32.5,13.0,29.76,West,267,7.0,0.0,44,0.00,,,0.00,WeatherTracker,2013-02-21 19:43:00,
2013-02-21 14:48:00,32.3,12.9,29.76,WNW,286,7.0,0.0,44,0.00,,,0.00,WeatherTracker,2013-02-21 19:48:00,
2013-02-21 14:53:00,32.2,13.3,29.76,West,278,0.0,0.0,45,0.00,,,0.00,WeatherTracker,2013-02-21 19:53:00,
2013-02-21 14:58:00,32.5,13.5,29.76,West,273,4.0,0.0,45,0.00,,,0.00,WeatherTracker,2013-02-21 19:58:00,
2013-02-21 15:03:00,32.9,13.9,29.77,West,269,3.0,0.0,45,0.00,,,0.00,WeatherTracker,2013-02-21 20:03:00,
2013-02-21 15:08:00,33.4,14.4,29.77,North,355,1.0,0.0,45,0.00,,,0.00,WeatherTracker,2013-02-21 20:08:00,
2013-02-21 15:13:00,33.4,14.9,29.77,WNW,297,2.0,0.0,46,0.00,,,0.00,WeatherTracker,2013-02-21 20:13:00,
2013-02-21 15:18:00,33.6,14.6,29.77,WNW,303,2.0,0.0,45,0.00,,,0.00,WeatherTracker,2013-02-21 20:18:00,
2013-02-21 15:23:00,34.2,14.6,29.78,NNE,13,4.0,0.0,44,0.00,,,0.00,WeatherTracker,2013-02-21 20:23:00,
2013-02-21 15:28:00,34.1,14.0,29.78,WNW,288,3.0,0.0,43,0.00,,,0.00,WeatherTracker,2013-02-21 20:28:00,
2013-02-21 15:33:00,33.8,14.2,29.78,NW,325,4.0,0.0,44,0.00,,,0.00,WeatherTracker,2013-02-21 20:33:00,
2013-02-21 15:38:00,33.5,14.5,29.79,WNW,298,3.0,0.0,45,0.00,,,0.00,WeatherTracker,2013-02-21 20:38:00,
2013-02-21 15:43:00,33.2,15.2,29.79,East,84,2.0,0.0,47,0.00,,,0.00,WeatherTracker,2013-02-21 20:43:00,
2013-02-21 15:48:00,32.7,14.2,29.80,SW,219,3.0,0.0,46,0.00,,,0.00,WeatherTracker,2013-02-21 20:48:00,
2013-02-21 15:54:00,32.1,14.2,29.79,West,272,1.0,0.0,47,0.00,,,0.00,WeatherTracker,2013-02-21 20:54:00,
2013-02-21 15:59:00,31.9,14.0,29.80,NW,318,4.0,0.0,47,0.00,,,0.00,WeatherTracker,2013-02-21 20:59:00,
2013-02-21 16:04:00,31.6,14.7,29.80,WNW,302,3.0,0.0,49,0.00,,,0.00,WeatherTracker,2013-02-21 21:04:00,
2013-02-21 16:09:00,31.4,14.5,29.80,SW,227,2.0,0.0,49,0.00,,,0.00,WeatherTracker,2013-02-21 21:09:00,
2013-02-21 16:14:00,31.5,14.6,29.80,West,265,4.0,0.0,49,0.00,,,0.00,WeatherTracker,2013-02-21 21:14:00,
2013-02-21 16:19:00,31.5,14.6,29.81,WNW,282,6.0,0.0,49,0.00,,,0.00,WeatherTracker,2013-02-21 21:19:00,
2013-02-21 16:24:00,31.4,14.5,29.81,NNW,333,5.0,0.0,49,0.00,,,0.00,WeatherTracker,2013-02-21 21:24:00,
2013-02-21 16:29:00,31.3,13.9,29.82,West,273,7.0,0.0,48,0.00,,,0.00,WeatherTracker,2013-02-21 21:29:00,
2013-02-21 16:34:00,31.1,14.2,29.82,NNW,340,2.0,0.0,49,0.00,,,0.00,WeatherTracker,2013-02-21 21:34:00,
2013-02-21 16:39:00,31.0,14.1,29.82,WSW,243,5.0,0.0,49,0.00,,,0.00,WeatherTracker,2013-02-21 21:39:00,
2013-02-21 16:44:00,30.8,14.4,29.83,West,281,1.0,0.0,50,0.00,,,0.00,WeatherTracker,2013-02-21 21:44:00,
2013-02-21 16:49:00,30.6,14.2,29.84,ENE,58,1.0,0.0,50,0.00,,,0.00,WeatherTracker,2013-02-21 21:49:00,
2013-02-21 16:54:00,30.6,14.6,29.84,West,275,0.0,0.0,51,0.00,,,0.00,WeatherTracker,2013-02-21 21:54:00,
2013-02-21 16:59:00,30.5,14.6,29.84,West,271,1.0,0.0,51,0.00,,,0.00,WeatherTracker,2013-02-21 21:59:00,
2013-02-21 17:04:00,30.3,14.4,29.85,NNW,341,4.0,0.0,51,0.00,,,0.00,WeatherTracker,2013-02-21 22:04:00,
2013-02-21 17:09:00,30.2,14.3,29.85,NW,304,1.0,0.0,51,0.00,,,0.00,WeatherTracker,2013-02-21 22:09:00,
2013-02-21 17:14:00,30.0,14.5,29.86,WNW,285,4.0,0.0,52,0.00,,,0.00,WeatherTracker,2013-02-21 22:14:00,
2013-02-21 17:19:00,29.9,14.4,29.86,WNW,289,0.0,0.0,52,0.00,,,0.00,WeatherTracker,2013-02-21 22:19:00,
2013-02-21 17:24:00,29.7,14.3,29.86,NNW,333,3.0,0.0,52,0.00,,,0.00,WeatherTracker,2013-02-21 22:24:00,
2013-02-21 17:29:00,29.6,14.6,29.87,West,269,5.0,0.0,53,0.00,,,0.00,WeatherTracker,2013-02-21 22:29:00,
2013-02-21 17:34:00,29.4,14.4,29.87,NW,322,1.0,0.0,53,0.00,,,0.00,WeatherTracker,2013-02-21 22:34:00,
2013-02-21 17:39:00,29.3,14.3,29.88,East,101,3.0,0.0,53,0.00,,,0.00,WeatherTracker,2013-02-21 22:39:00,
2013-02-21 17:45:00,29.2,14.2,29.88,NW,312,3.0,0.0,53,0.00,,,0.00,WeatherTracker,2013-02-21 22:45:00,
2013-02-21 17:50:00,29.1,14.6,29.88,West,281,2.0,0.0,54,0.00,,,0.00,WeatherTracker,2013-02-21 22:50:00,
2013-02-21 17:55:00,28.9,14.4,29.89,WNW,292,1.0,0.0,54,0.00,,,0.00,WeatherTracker,2013-02-21 22:55:00,
2013-02-21 18:00:00,28.8,14.3,29.89,West,272,4.0,0.0,54,0.00,,,0.00,WeatherTracker,2013-02-21 23:00:00,
2013-02-21 18:05:00,28.7,14.2,29.90,West,263,2.0,0.0,54,0.00,,,0.00,WeatherTracker,2013-02-21 23:05:00,
2013-02-21 18:10:00,28.6,14.1,29.90,West,281,3.0,0.0,54,0.00,,,0.00,WeatherTracker,2013-02-21 23:10:00,
2013-02-21 18:15:00,28.5,14.4,29.91,West,273,6.0,0.0,55,0.00,,,0.00,WeatherTracker,2013-02-21 23:15:00,
2013-02-21 18:20:00,28.5,14.4,29.91,West,271,0.0,0.0,55,0.00,,,0.00,WeatherTracker,2013-02-21 23:20:00,
2013-02-21 18:25:00,28.4,14.7,29.92,SSW,208,3.0,0.0,56,0.00,,,0.00,WeatherTracker,2013-02-21 23:25:00,
2013-02-21 18:30:00,28.3,14.2,29.93,WSW,253,4.0,0.0,55,0.00,,,0.00,WeatherTracker,2013-02-21 23:30:00,
2013-02-21 18:35:00,28.3,14.6,29.93,WNW,290,3.0,0.0,56,0.00,,,0.00,WeatherTracker,2013-02-21 23:35:00,
2013-02-21 18:40:00,28.2,14.1,29.93,NW,321,5.0,0.0,55,0.00,,,0.00,WeatherTracker,2013-02-21 23:40:00,
2013-02-21 18:45:00,28.2,14.1,29.93,NNW,329,8.0,0.0,55,0.00,,,0.00,WeatherTracker,2013-02-21 23:45:00,
2013-02-21 18:50:00,28.1,14.4,29.94,WNW,298,5.0,0.0,56,0.00,,,0.00,WeatherTracker,2013-02-21 23:50:00,
2013-02-21 18:55:00,28.1,14.4,29.94,NW,304,3.0,0.0,56,0.00,,,0.00,WeatherTracker,2013-02-21 23:55:00,
2013-02-21 19:00:00,28.0,13.9,29.94,NW,326,3.0,0.0,55,0.00,,,0.00,WeatherTracker,2013-02-22 00:00:00,
2013-02-21 19:05:00,28.0,14.4,29.95,WNW,298,0.0,0.0,56,0.00,,,0.00,WeatherTracker,2013-02-22 00:05:00,
2013-02-21 19:10:00,27.9,14.3,29.95,West,266,1.0,0.0,56,0.00,,,0.00,WeatherTracker,2013-02-22 00:10:00,
2013-02-21 19:15:00,27.7,14.1,29.95,SW,223,1.0,0.0,56,0.00,,,0.00,WeatherTracker,2013-02-22 00:15:00,
2013-02-21 19:20:00,27.6,14.4,29.96,WSW,252,0.0,0.0,57,0.00,,,0.00,WeatherTracker,2013-02-22 00:20:00,
2013-02-21 19:25:00,27.4,14.2,29.96,WNW,299,4.0,0.0,57,0.00,,,0.00,WeatherTracker,2013-02-22 00:25:00,
2013-02-21 19:30:00,27.3,14.5,29.96,West,277,0.0,0.0,58,0.00,,,0.00,WeatherTracker,2013-02-22 00:30:00,
2013-02-21 19:35:00,27.2,14.0,29.96,WNW,285,6.0,0.0,57,0.00,,,0.00,WeatherTracker,2013-02-22 00:35:00,
2013-02-21 19:40:00,27.1,14.3,29.97,NNW,333,6.0,0.0,58,0.00,,,0.00,WeatherTracker,2013-02-22 00:40:00,
2013-02-21 19:46:00,27.0,14.2,29.97,WNW,290,2.0,0.0,58,0.00,,,0.00,WeatherTracker,2013-02-22 00:46:00,
2013-02-21 19:51:00,26.9,14.5,29.97,NW,306,4.0,0.0,59,0.00,,,0.00,WeatherTracker,2013-02-22 00:51:00,
2013-02-21 19:56:00,26.8,14.4,29.97,NW,317,0.0,0.0,59,0.00,,,0.00,WeatherTracker,2013-02-22 00:56:00,
2013-02-21 20:01:00,26.7,14.3,29.98,NW,308,1.0,0.0,59,0.00,,,0.00,WeatherTracker,2013-02-22 01:01:00,
2013-02-21 20:06:00,26.6,14.6,29.98,SW,220,4.0,0.0,60,0.00,,,0.00,WeatherTracker,2013-02-22 01:06:00,
2013-02-21 20:11:00,26.5,14.1,29.98,NW,313,0.0,0.0,59,0.00,,,0.00,WeatherTracker,2013-02-22 01:11:00,
2013-02-21 20:16:00,26.5,14.5,29.99,NW,320,0.0,0.0,60,0.00,,,0.00,WeatherTracker,2013-02-22 01:16:00,
2013-02-21 20:21:00,26.4,14.8,29.99,WNW,300,3.0,0.0,61,0.00,,,0.00,WeatherTracker,2013-02-22 01:21:00,
2013-02-21 20:26:00,26.3,14.7,29.99,West,269,4.0,0.0,61,0.00,,,0.00,WeatherTracker,2013-02-22 01:26:00,
2013-02-21 20:31:00,26.4,14.8,30.00,West,259,0.0,0.0,61,0.00,,,0.00,WeatherTracker,2013-02-22 01:31:00,
2013-02-21 20:36:00,26.3,14.7,30.00,NNW,329,0.0,0.0,61,0.00,,,0.00,WeatherTracker,2013-02-22 01:36:00,
2013-02-21 20:41:00,26.3,15.1,30.00,NNW,333,1.0,0.0,62,0.00,,,0.00,WeatherTracker,2013-02-22 01:41:00,
2013-02-21 20:46:00,26.4,15.2,30.01,West,265,3.0,0.0,62,0.00,,,0.00,WeatherTracker,2013-02-22 01:46:00,
2013-02-21 20:51:00,26.4,15.2,30.01,SSW,200,0.0,0.0,62,0.00,,,0.00,WeatherTracker,2013-02-22 01:51:00,
2013-02-21 20:56:00,26.3,15.1,30.01,NW,309,2.0,0.0,62,0.00,,,0.00,WeatherTracker,2013-02-22 01:56:00,
2013-02-21 21:01:00,26.2,15.0,30.01,WNW,303,2.0,0.0,62,0.00,,,0.00,WeatherTracker,2013-02-22 02:01:00,
2013-02-21 21:06:00,26.2,15.3,30.02,West,275,2.0,0.0,63,0.00,,,0.00,WeatherTracker,2013-02-22 02:06:00,
2013-02-21 21:11:00,26.1,15.3,30.02,WNW,285,0.0,0.0,63,0.00,,,0.00,WeatherTracker,2013-02-22 02:11:00,
2013-02-21 21:16:00,26.1,15.3,30.02,WNW,285,0.0,0.0,63,0.00,,,0.00,WeatherTracker,2013-02-22 02:16:00,
2013-02-21 21:21:00,26.1,15.6,30.03,West,264,1.0,0.0,64,0.00,,,0.00,WeatherTracker,2013-02-22 02:21:00,
2013-02-21 21:26:00,26.0,15.2,30.03,West,268,0.0,0.0,63,0.00,,,0.00,WeatherTracker,2013-02-22 02:26:00,
2013-02-21 21:31:00,26.1,15.6,30.03,WNW,294,1.0,0.0,64,0.00,,,0.00,WeatherTracker,2013-02-22 02:31:00,
2013-02-21 21:37:00,26.1,15.6,30.03,West,265,0.0,0.0,64,0.00,,,0.00,WeatherTracker,2013-02-22 02:37:00,
2013-02-21 21:42:00,26.1,15.6,30.03,NW,309,0.0,0.0,64,0.00,,,0.00,WeatherTracker,2013-02-22 02:42:00,
2013-02-21 21:47:00,26.0,15.5,30.04,ESE,107,2.0,0.0,64,0.00,,,0.00,WeatherTracker,2013-02-22 02:47:00,
2013-02-21 21:52:00,26.0,15.9,30.04,NNW,338,0.0,0.0,65,0.00,,,0.00,WeatherTracker,2013-02-22 02:52:00,
2013-02-21 21:57:00,26.0,15.9,30.04,NW,304,0.0,0.0,65,0.00,,,0.00,WeatherTracker,2013-02-22 02:57:00,
2013-02-21 22:02:00,26.0,15.9,30.04,WNW,288,1.0,0.0,65,0.00,,,0.00,WeatherTracker,2013-02-22 03:02:00,
2013-02-21 22:07:00,26.0,15.9,30.04,WNW,284,1.0,0.0,65,0.00,,,0.00,WeatherTracker,2013-02-22 03:07:00,
2013-02-21 22:12:00,25.9,16.1,30.04,NW,319,3.0,0.0,66,0.00,,,0.00,WeatherTracker,2013-02-22 03:12:00,
2013-02-21 22:17:00,25.9,15.8,30.04,WSW,238,1.0,0.0,65,0.00,,,0.00,WeatherTracker,2013-02-22 03:17:00,
2013-02-21 22:22:00,25.9,15.8,30.04,NNW,333,0.0,0.0,65,0.00,,,0.00,WeatherTracker,2013-02-22 03:22:00,
2013-02-21 22:27:00,25.9,16.1,30.04,NW,315,2.0,0.0,66,0.00,,,0.00,WeatherTracker,2013-02-22 03:27:00,
2013-02-21 22:32:00,25.9,16.1,30.04,WNW,294,0.0,0.0,66,0.00,,,0.00,WeatherTracker,2013-02-22 03:32:00,
2013-02-21 22:37:00,25.9,16.1,30.05,WSW,252,3.0,0.0,66,0.00,,,0.00,WeatherTracker,2013-02-22 03:37:00,
2013-02-21 22:42:00,25.9,16.1,30.05,West,266,1.0,0.0,66,0.00,,,0.00,WeatherTracker,2013-02-22 03:42:00,
2013-02-21 22:47:00,25.9,16.1,30.06,WNW,283,0.0,0.0,66,0.00,,,0.00,WeatherTracker,2013-02-22 03:47:00,
2013-02-21 22:52:00,25.9,16.1,30.06,NW,315,0.0,0.0,66,0.00,,,0.00,WeatherTracker,2013-02-22 03:52:00,
2013-02-21 22:57:00,25.8,16.4,30.07,West,272,5.0,0.0,67,0.00,,,0.00,WeatherTracker,2013-02-22 03:57:00,
2013-02-21 23:02:00,25.8,16.0,30.07,West,268,2.0,0.0,66,0.00,,,0.00,WeatherTracker,2013-02-22 04:02:00,
2013-02-21 23:07:00,25.7,16.3,30.08,WNW,284,1.0,0.0,67,0.00,,,0.00,WeatherTracker,2013-02-22 04:07:00,
2013-02-21 23:12:00,25.6,16.2,30.07,SSW,205,0.0,0.0,67,0.00,,,0.00,WeatherTracker,2013-02-22 04:12:00,
2013-02-21 23:17:00,25.6,16.2,30.07,West,276,3.0,0.0,67,0.00,,,0.00,WeatherTracker,2013-02-22 04:17:00,
2013-02-21 23:22:00,25.9,16.5,30.09,NNW,331,0.0,0.0,67,0.00,,,0.00,WeatherTracker,2013-02-22 04:22:00,
2013-02-21 23:27:00,25.9,16.5,30.09,WSW,241,3.0,0.0,67,0.00,,,0.00,WeatherTracker,2013-02-22 04:27:00,
2013-02-21 23:32:00,25.9,16.5,30.09,NNW,344,1.0,0.0,67,0.00,,,0.00,WeatherTracker,2013-02-22 04:32:00,
2013-02-21 23:38:00,25.8,16.4,30.09,SW,232,2.0,0.0,67,0.00,,,0.00,WeatherTracker,2013-02-22 04:38:00,
2013-02-21 23:43:00,25.7,16.3,30.09,WNW,286,0.0,0.0,67,0.00,,,0.00,WeatherTracker,2013-02-22 04:43:00,
2013-02-21 23:48:00,25.7,16.3,30.10,West,260,0.0,0.0,67,0.00,,,0.00,WeatherTracker,2013-02-22 04:48:00,
2013-02-21 23:53:00,25.6,16.5,30.10,WNW,291,1.0,0.0,68,0.00,,,0.00,WeatherTracker,2013-02-22 04:53:00,
2013-02-21 23:58:00,25.5,16.4,30.11,West,269,4.0,0.0,68,0.00,,,0.00,WeatherTracker,2013-02-22 04:58:00,